TimeCDT,TemperatureF,Dew PointF,Humidity,Sea Level PressureIn,VisibilityMPH,Wind Direction,Wind SpeedMPH,Gust SpeedMPH,PrecipitationIn,Events,Conditions,WindDirDegrees,DateUTC
12:53 AM,75.9,72.0,87,29.90,9.0,SSE,4.6,-,N/A,,Scattered Clouds,150,2013-09-03 05:53:00
1:53 AM,77.0,71.1,82,29.90,10.0,SSE,3.5,-,N/A,,Mostly Cloudy,160,2013-09-03 06:53:00
2:53 AM,78.1,69.1,74,29.89,10.0,Calm,Calm,-,N/A,,Clear,0,2013-09-03 07:53:00
3:53 AM,75.9,70.0,82,29.90,10.0,Calm,Calm,-,N/A,,Overcast,0,2013-09-03 08:53:00
4:53 AM,75.9,71.1,85,29.91,10.0,Calm,Calm,-,N/A,,Clear,0,2013-09-03 09:53:00
5:53 AM,75.0,71.1,87,29.91,10.0,Calm,Calm,-,N/A,,Clear,0,2013-09-03 10:53:00
6:53 AM,75.0,71.1,87,29.92,10.0,South,3.5,-,N/A,,Clear,190,2013-09-03 11:53:00
7:53 AM,75.9,71.1,85,29.93,9.0,Calm,Calm,-,N/A,,Clear,0,2013-09-03 12:53:00
8:53 AM,79.0,70.0,74,29.94,10.0,Calm,Calm,-,N/A,,Clear,0,2013-09-03 13:53:00
9:53 AM,84.9,69.1,59,29.95,10.0,SSE,3.5,-,N/A,,Clear,150,2013-09-03 14:53:00
10:53 AM,90.0,66.9,46,29.95,10.0,Calm,Calm,-,N/A,,Clear,0,2013-09-03 15:53:00
11:53 AM,93.9,66.9,41,29.95,10.0,Calm,Calm,-,N/A,,Clear,0,2013-09-03 16:53:00
12:53 PM,96.1,66.9,38,29.93,10.0,Variable,3.5,-,N/A,,Scattered Clouds,0,2013-09-03 17:53:00
1:53 PM,99.0,66.0,34,29.91,10.0,Variable,6.9,-,N/A,,Scattered Clouds,0,2013-09-03 18:53:00
2:53 PM,100.0,66.0,33,29.87,10.0,Variable,3.5,-,N/A,,Scattered Clouds,0,2013-09-03 19:53:00
3:53 PM,100.9,64.9,31,29.85,10.0,Variable,5.8,17.3,N/A,,Scattered Clouds,0,2013-09-03 20:53:00
4:53 PM,100.9,64.9,31,29.83,10.0,North,9.2,-,N/A,,Scattered Clouds,360,2013-09-03 21:53:00
5:53 PM,99.0,64.9,33,29.83,10.0,Variable,5.8,-,N/A,,Partly Cloudy,0,2013-09-03 22:53:00
6:53 PM,97.0,64.9,35,29.85,10.0,NNE,4.6,-,N/A,,Clear,30,2013-09-03 23:53:00
7:53 PM,93.0,66.0,41,29.86,10.0,Calm,Calm,-,N/A,,Clear,0,2013-09-04 00:53:00
8:53 PM,90.0,68.0,48,29.88,10.0,South,6.9,-,N/A,,Mostly Cloudy,190,2013-09-04 01:53:00
9:53 PM,88.0,68.0,51,29.89,10.0,Calm,Calm,-,N/A,,Overcast,0,2013-09-04 02:53:00
10:53 PM,82.9,69.1,63,29.91,10.0,Calm,Calm,-,N/A,,Partly Cloudy,0,2013-09-04 03:53:00
11:53 PM,82.0,69.1,65,29.93,10.0,East,4.6,-,N/A,,Clear,100,2013-09-04 04:53:00